Back to catalog

STARLINK-6368

AliveCommunicationsVLEO
NORAD 57234·PAYLOAD·🇺🇸 United States

Launched Jul 7, 2023 from Vandenberg Space Force Base

Loading…

Next Passes (next 24 hours)

TLE

FreshSource: CelesTrak SupGP

Epoch: Sep 14, 2026, 22:13 UTC

1 57234C 23094S   26257.92618056  .00034782  00000+0  12600-2 0  2579
2 57234  43.0018  41.6849 0001896 273.8068 332.2425 15.27554387    18

Track STARLINK-6368 in real time with AllMySat

Download on the App Store